Regional Weather Roundup
Issued by NWS Goodland, KS

Home | Current Version | Previous Version | Text Only | Print | Product List | Glossary On
Versions: 1 2 3 4 5 6 7 8 9 10 11 12 13 14 15 16 17 18 19 20 21 22 23 24 25 26 27 28 29 30 31 32 33 34 35 36 37 38 39 40 41 42 43 44 45 46 47 48 49 50
987
ASUS43 KGLD 070008
RWRGLD

GOODLAND FORECAST AREA HOURLY WEATHER ROUNDUP
NATIONAL WEATHER SERVICE GOODLAND KS
500 PM MST SAT FEB 06 2016

...OFFICIAL OBSERVATIONS...

CITY           SKY/WX    TMP DP  RH WIND       PRES   REMARKS
GOODLAND KS    CLOUDY    39  26  59 SW15      30.08F
HILL CITY KS   CLOUDY    39  29  67 SW7       30.09F
IMPERIAL NEB   CLOUDY    36  26  67 SW10      30.02F
MCCOOK NEB     CLOUDY    39  27  62 SW13      30.04F
AKRON CO       CLOUDY    37  24  59 SW15      30.05F
BURLINGTON CO  CLOUDY    35  23  61 SW14      30.09F
LIMON CO       CLOUDY    25  17  72 N6        30.12F
$$

...UNOFFICIAL OBSERVATIONS...

CITY           SKY/WX    TMP DP  RH WIND       PRES   REMARKS
COLBY KS       CLEAR     37  32  81 SW10      30.09S
GOVE KS          N/A     41  32  70 MISG        N/A
LENORA KS        N/A     37  32  82 MISG        N/A
NORTON KS      CLEAR     36  27  69 SW12      30.05F
SHARON SPRINGS   N/A     40  30  67 SW10        N/A
KIT CARSON CO    N/A     39  25  57 MISG        N/A
YUMA CO          N/A     37  28  71 CALM        N/A
$$




USA.gov is the U.S. government's official web portal to all federal, state and local government web resources and services.